Location: Feydey
(46.3431°N, 7.0106°E)
Time: 03:33:41
(UTC+00:00)

Cosmos 1025 Rocket - Visible Passes

Search period start: 17 October 2021 00:00
Search period end: 27 October 2021 00:00
Orbit: 593 x 619 km, 82.5° (Epoch: 16 October)

Date Brightness Start Highest point End Pass type
(mag) Time Alt. Az. Time Alt. Az. Time Alt. Az.
17 Oct 6.3 04:24:53 10° SE 04:27:41 17° E 04:30:27 10° NE visible
17 Oct 6.3 17:43:32 10° NW 17:46:03 15° W 17:48:32 10° WSW visible
18 Oct 5.4 04:37:04 10° SSE 04:40:42 27° E 04:44:20 10° NNE visible
19 Oct 4.4 04:49:42 10° SSE 04:53:48 43° E 04:57:54 10° NNE visible
20 Oct 3.3 05:02:38 10° S 05:06:57 73° E 05:11:16 10° NNE visible
21 Oct 6.5 03:41:28 10° ESE 03:43:11 12° E 03:44:53 10° ENE visible
21 Oct 3.0 05:15:53 10° SSW 05:20:10 67° W 05:24:29 10° N visible
22 Oct 5.8 03:53:03 10° SE 03:56:10 20° E 03:59:16 10° NE visible
22 Oct 6.4 17:12:30 10° NW 17:14:30 13° W 17:16:29 10° WSW visible
23 Oct 4.9 04:05:24 10° SSE 04:09:13 31° E 04:13:01 10° NNE visible
24 Oct 3.9 04:18:08 10° S 04:22:19 51° E 04:26:30 10° NNE visible
25 Oct 3.0 04:31:11 10° S 04:35:30 87° E 04:39:48 10° N visible
26 Oct 6.1 03:09:20 10° ESE 03:11:39 14° E 03:13:56 10° NE visible
26 Oct 3.0 04:44:30 10° SSW 04:48:44 56° WNW 04:52:59 10° N visible
